Regional Weather Roundup
Issued by NWS

Home | Current Version | Previous Version | Graphics & Text | Print | Product List | Glossary On
Versions: 1 2 3 4 5 6 7 8 9 10 11 12 13 14 15 16 17 18 19 20 21 22 23 24 25 26 27 28 29 30 31 32 33 34 35 36 37 38 39 40 41 42 43 44 45 46 47 48 49 50
000
ASUS45 KCYS 131210
RWRWY

WYOMING REGIONAL WEATHER ROUNDUP
NATIONAL WEATHER SERVICE CHEYENNE WY
500 AM MST WED DEC 13 2017

NOTE:  "FAIR" INDICATES FEW OR NO CLOUDS BELOW 12,000 FEET
WITH NO SIGNIFICANT WEATHER AND/OR OBSTRUCTIONS TO VISIBILITY.

WYZ001-131300-
YELLOWSTONE NATIONAL PARK

CITY           SKY/WX    TMP DP  RH WIND       PRES   REMARKS
LK YELLOWSTONE   N/A      8   5  87 N3        30.30F
6HR MIN TEMP:   7; 6HR MAX TEMP:  18;

W YELLOWSTONE  NOT AVBL

$$
WYZ002>013-054>058-071-098>099-131300-
NORTHERN WYOMING

CITY           SKY/WX    TMP DP  RH WIND       PRES   REMARKS
JACKSON        CLOUDY    19  15  84 CALM      30.29F
CODY           FAIR      27  10  49 CALM      30.20F
GREYBULL       FAIR      33  12  41 NW12      30.16S WCI  24
6HR MIN TEMP:  23; 6HR MAX TEMP:  41;

WORLAND        FAIR      28  18  66 SW10      30.18S WCI  19
6HR MIN TEMP:  21; 6HR MAX TEMP:  30;

SHERIDAN       FAIR      39  15  37 NW12      30.16S WCI  32
6HR MIN TEMP:  35; 6HR MAX TEMP:  46;

BUFFALO        FAIR      40   9  28 N14       30.14S WCI  32
6HR MIN TEMP:  40; 6HR MAX TEMP:  47;

GILLETTE       FAIR      34  13  41 NW16      30.13R WCI  24
6HR MIN TEMP:  34; 6HR MAX TEMP:  45;

HULETT         FAIR      37  18  44 W5        30.10S WCI  34
NEWCASTLE      FAIR      34  16  47 NW17G24   30.06S WCI  23

$$
WYZ014>020-022>026-101>103-131300-
CENTRAL WYOMING

CITY           SKY/WX    TMP DP  RH WIND       PRES   REMARKS
BIG PINEY      CLOUDY    23   2  40 NW3       30.25F
6HR MIN TEMP:  17; 6HR MAX TEMP:  25;

PINEDALE       CLOUDY    27   5  39 NW12      30.23F WCI  16
DUBOIS         CLOUDY    32   0  25 NW14      30.20F WCI  22
LANDER         FAIR      33  14  45 CALM      30.20S
6HR MIN TEMP:  26; 6HR MAX TEMP:  39;

RIVERTON       FAIR      34  12  40 N6        30.20S WCI  29
6HR MIN TEMP:  24; 6HR MAX TEMP:  37;

CASPER         FAIR      24  17  74 W3        30.17F
6HR MIN TEMP:  22; 6HR MAX TEMP:  37;

DOUGLAS        FAIR      34  15  46 NW13      30.15R WCI  25
6HR MIN TEMP:  31; 6HR MAX TEMP:  41;


$$
WYZ021-027>030-104>119-131300-
SOUTHERN WYOMING

CITY           SKY/WX    TMP DP  RH WIND       PRES   REMARKS
EVANSTON       FAIR      31   6  35 S8        30.29F WCI  23
6HR MIN TEMP:  27; 6HR MAX TEMP:  33;

FORT BRIDGER   FAIR      34   2  25 W7        30.30F WCI  28
ROCK SPRINGS   CLOUDY    32   4  30 E7        30.24S WCI  26
6HR MIN TEMP:  29; 6HR MAX TEMP:  34;

DIXON          PTSUNNY   20  12  72 SE6       30.27S WCI  12
RAWLINS        FAIR      31  10  41 W9        30.22R WCI  23
6HR MIN TEMP:  30; 6HR MAX TEMP:  39;

SARATOGA       CLOUDY    28  16  59 CALM      30.21F
LARAMIE        MOCLDY    34   2  25 NW17      30.16R WCI  23
6HR MIN TEMP:  27; 6HR MAX TEMP:  38;

CHEYENNE       CLOUDY    39   8  27 N14G22    30.12S WCI  31
6HR MIN TEMP:  35; 6HR MAX TEMP:  46;

TORRINGTON     FAIR      42  14  32 NW18G25   30.08R
6HR MIN TEMP:  37; 6HR MAX TEMP:  47;

PINE BLUFFS    PTSUNNY   37   9  30 MISG      30.12S

$$



USA.gov is the U.S. government's official web portal to all federal, state and local government web resources and services.